Time,TemperatureF,DewpointF,PressureIn,WindDirection,WindDirectionDegrees,WindSpeedMPH,WindSpeedGustMPH,Humidity,HourlyPrecipIn,Conditions,Clouds,dailyrainin,SoftwareType,DateUTC
2013-03-11 00:00:00,38.7,30.4,30.36,ESE,104,0.0,0.0,72,0.00,,,0.00,VWS V13.01,2013-03-11 04:00:00,
2013-03-11 00:05:00,38.7,30.8,30.36,ESE,104,0.0,0.0,73,0.00,,,0.00,VWS V13.01,2013-03-11 04:05:00,
2013-03-11 00:10:00,38.7,30.8,30.36,ESE,104,0.0,0.0,73,0.00,,,0.00,VWS V13.01,2013-03-11 04:10:00,
2013-03-11 00:15:00,38.7,30.8,30.36,ESE,104,0.0,0.0,73,0.00,,,0.00,VWS V13.01,2013-03-11 04:15:00,
2013-03-11 00:20:00,38.7,30.8,30.36,ESE,104,0.0,0.0,73,0.00,,,0.00,VWS V13.01,2013-03-11 04:20:00,
2013-03-11 00:25:00,38.7,30.8,30.36,ESE,104,0.0,0.0,73,0.00,,,0.00,VWS V13.01,2013-03-11 04:25:00,
2013-03-11 00:30:00,38.8,30.9,30.36,ESE,104,0.0,0.0,73,0.00,,,0.00,VWS V13.01,2013-03-11 04:30:00,
2013-03-11 00:35:00,38.8,30.6,30.36,ESE,104,0.0,0.0,72,0.00,,,0.00,VWS V13.01,2013-03-11 04:35:00,
2013-03-11 00:40:00,38.8,30.6,30.36,ESE,104,0.0,0.0,72,0.00,,,0.00,VWS V13.01,2013-03-11 04:40:00,
2013-03-11 00:45:00,39.0,30.8,30.36,ESE,104,0.0,0.0,72,0.00,,,0.00,VWS V13.01,2013-03-11 04:45:00,
2013-03-11 00:50:00,39.0,30.8,30.36,ESE,104,0.0,0.0,72,0.00,,,0.00,VWS V13.01,2013-03-11 04:50:00,
2013-03-11 00:55:00,39.0,30.8,30.36,ESE,104,0.0,0.0,72,0.00,,,0.00,VWS V13.01,2013-03-11 04:55:00,
2013-03-11 01:00:00,39.0,30.8,30.33,ESE,104,0.0,0.0,72,0.00,,,0.00,VWS V13.01,2013-03-11 05:00:00,
2013-03-11 01:05:00,39.0,30.8,30.33,ESE,104,0.0,0.0,72,0.00,,,0.00,VWS V13.01,2013-03-11 05:05:00,
2013-03-11 01:10:00,39.2,31.0,30.33,ESE,104,0.0,0.0,72,0.00,,,0.00,VWS V13.01,2013-03-11 05:10:00,
2013-03-11 01:15:00,39.2,31.0,30.33,ESE,104,0.0,0.0,72,0.00,,,0.00,VWS V13.01,2013-03-11 05:15:00,
2013-03-11 01:20:00,39.2,31.0,30.33,ESE,104,0.0,0.0,72,0.00,,,0.00,VWS V13.01,2013-03-11 05:20:00,
2013-03-11 01:25:00,39.2,31.0,30.33,ESE,104,0.0,0.0,72,0.00,,,0.00,VWS V13.01,2013-03-11 05:25:00,
2013-03-11 01:30:00,39.2,31.0,30.33,ESE,104,0.0,0.0,72,0.00,,,0.00,VWS V13.01,2013-03-11 05:30:00,
2013-03-11 01:35:00,39.2,31.0,30.33,ESE,104,0.0,0.0,72,0.00,,,0.00,VWS V13.01,2013-03-11 05:35:00,
2013-03-11 01:40:00,39.2,31.0,30.33,ESE,104,0.0,0.0,72,0.00,,,0.00,VWS V13.01,2013-03-11 05:40:00,
2013-03-11 01:45:00,39.2,31.0,30.33,ESE,104,0.0,0.0,72,0.00,,,0.00,VWS V13.01,2013-03-11 05:45:00,
2013-03-11 01:50:00,39.2,31.0,30.33,ESE,104,0.0,0.0,72,0.00,,,0.00,VWS V13.01,2013-03-11 05:50:00,
2013-03-11 01:55:00,39.4,31.1,30.33,ESE,104,0.0,0.0,72,0.00,,,0.00,VWS V13.01,2013-03-11 05:55:00,
2013-03-11 02:00:00,39.4,31.1,30.33,ESE,104,0.0,0.0,72,0.00,,,0.00,VWS V13.01,2013-03-11 06:00:00,
2013-03-11 02:05:00,39.4,31.5,30.33,ESE,104,0.0,0.0,73,0.00,,,0.00,VWS V13.01,2013-03-11 06:05:00,
2013-03-11 02:10:00,39.4,31.5,30.33,ESE,104,0.0,0.0,73,0.00,,,0.00,VWS V13.01,2013-03-11 06:10:00,
2013-03-11 02:15:00,39.6,31.6,30.33,ESE,104,0.0,0.0,73,0.00,,,0.00,VWS V13.01,2013-03-11 06:15:00,
2013-03-11 02:20:00,39.6,31.6,30.33,ESE,104,0.0,0.0,73,0.00,,,0.00,VWS V13.01,2013-03-11 06:20:00,
2013-03-11 02:25:00,39.7,31.8,30.33,ESE,104,0.0,0.0,73,0.00,,,0.00,VWS V13.01,2013-03-11 06:25:00,
2013-03-11 02:30:00,39.7,31.8,30.30,ESE,104,0.0,0.0,73,0.00,,,0.00,VWS V13.01,2013-03-11 06:30:00,
2013-03-11 02:35:00,39.7,31.8,30.30,ESE,104,0.0,0.0,73,0.00,,,0.00,VWS V13.01,2013-03-11 06:35:00,
2013-03-11 02:40:00,39.7,31.8,30.30,ESE,104,0.0,0.0,73,0.00,,,0.00,VWS V13.01,2013-03-11 06:40:00,
2013-03-11 02:45:00,39.7,31.8,30.30,ESE,104,0.0,0.0,73,0.00,,,0.00,VWS V13.01,2013-03-11 06:45:00,
2013-03-11 02:50:00,39.7,31.8,30.30,ESE,104,0.0,0.0,73,0.00,,,0.00,VWS V13.01,2013-03-11 06:50:00,
2013-03-11 02:55:00,39.7,31.8,30.30,ESE,104,0.0,0.0,73,0.00,,,0.00,VWS V13.01,2013-03-11 06:55:00,
2013-03-11 03:00:00,39.7,31.8,30.30,ESE,104,0.0,0.0,73,0.00,,,0.00,VWS V13.01,2013-03-11 07:00:00,
2013-03-11 03:04:00,39.7,31.8,30.30,ESE,104,0.0,0.0,73,0.00,,,0.00,VWS V13.01,2013-03-11 07:04:00,
2013-03-11 03:09:00,39.7,31.8,30.30,ESE,104,0.0,0.0,73,0.00,,,0.00,VWS V13.01,2013-03-11 07:09:00,
2013-03-11 03:14:00,39.7,31.8,30.30,ESE,104,0.0,0.0,73,0.00,,,0.00,VWS V13.01,2013-03-11 07:14:00,
2013-03-11 03:19:00,39.7,31.8,30.30,ESE,104,0.0,0.0,73,0.00,,,0.00,VWS V13.01,2013-03-11 07:19:00,
2013-03-11 03:24:00,39.9,32.0,30.30,ESE,104,0.0,0.0,73,0.00,,,0.00,VWS V13.01,2013-03-11 07:24:00,
2013-03-11 03:29:00,39.7,31.8,30.30,ESE,104,0.0,0.0,73,0.00,,,0.00,VWS V13.01,2013-03-11 07:29:00,
2013-03-11 03:30:00,38.0,35.3,30.28,North,-999,0.0,0.0,90,0.00,,,-99.99,WeatherLink 5.9.3,2013-03-11 07:30:00,
2013-03-11 03:34:00,39.7,32.1,30.30,ESE,104,0.0,0.0,74,0.00,,,0.00,VWS V13.01,2013-03-11 07:34:00,
2013-03-11 03:39:00,39.9,32.3,30.30,ESE,104,0.0,0.0,74,0.00,,,0.00,VWS V13.01,2013-03-11 07:39:00,
2013-03-11 03:44:00,39.7,32.1,30.30,ESE,104,0.0,0.0,74,0.00,,,0.00,VWS V13.01,2013-03-11 07:44:00,
2013-03-11 03:49:00,39.9,32.3,30.30,ESE,104,0.0,0.0,74,0.00,,,0.00,VWS V13.01,2013-03-11 07:49:00,
2013-03-11 03:54:00,39.9,32.3,30.30,ESE,104,0.0,0.0,74,0.00,,,0.00,VWS V13.01,2013-03-11 07:54:00,
2013-03-11 03:59:00,39.9,32.3,30.30,ESE,104,0.0,0.0,74,0.00,,,0.00,VWS V13.01,2013-03-11 07:59:00,
2013-03-11 04:00:00,38.2,35.5,30.26,SSE,157,0.0,1.0,90,0.00,,,-99.99,WeatherLink 5.9.3,2013-03-11 08:00:00,
2013-03-11 04:04:00,39.9,32.7,30.27,ESE,104,0.0,2.7,75,0.00,,,0.00,VWS V13.01,2013-03-11 08:04:00,
2013-03-11 04:09:00,39.9,32.7,30.27,ESE,104,0.0,0.0,75,0.00,,,0.00,VWS V13.01,2013-03-11 08:09:00,
2013-03-11 04:14:00,39.9,32.7,30.27,ESE,104,0.0,0.0,75,0.00,,,0.00,VWS V13.01,2013-03-11 08:14:00,
2013-03-11 04:19:00,39.9,33.0,30.27,ESE,104,0.0,0.0,76,0.00,,,0.00,VWS V13.01,2013-03-11 08:19:00,
2013-03-11 04:24:00,39.9,32.7,30.27,ESE,104,0.0,0.0,75,0.00,,,0.00,VWS V13.01,2013-03-11 08:24:00,
2013-03-11 04:29:00,40.1,32.8,30.27,ESE,104,0.0,0.0,75,0.00,,,0.00,VWS V13.01,2013-03-11 08:29:00,
2013-03-11 04:30:00,38.3,35.9,30.26,SW,225,0.0,1.0,91,0.00,,,-99.99,WeatherLink 5.9.3,2013-03-11 08:30:00,
2013-03-11 04:34:00,40.1,32.8,30.27,ESE,104,0.0,0.0,75,0.00,,,0.00,VWS V13.01,2013-03-11 08:34:00,
2013-03-11 04:39:00,40.1,32.8,30.27,ESE,104,0.0,0.0,75,0.00,,,0.00,VWS V13.01,2013-03-11 08:39:00,
2013-03-11 04:44:00,40.3,33.0,30.27,ESE,104,0.0,0.0,75,0.00,,,0.00,VWS V13.01,2013-03-11 08:44:00,
2013-03-11 04:49:00,40.3,33.0,30.27,ESE,104,0.0,0.0,75,0.00,,,0.00,VWS V13.01,2013-03-11 08:49:00,
2013-03-11 04:54:00,40.3,33.3,30.27,ESE,104,0.0,0.0,76,0.00,,,0.00,VWS V13.01,2013-03-11 08:54:00,
2013-03-11 04:59:00,40.3,33.3,30.27,ESE,104,0.0,0.0,76,0.00,,,0.00,VWS V13.01,2013-03-11 08:59:00,
2013-03-11 05:00:00,38.4,36.0,30.26,North,-999,0.0,0.0,91,0.00,,,-99.99,WeatherLink 5.9.3,2013-03-11 09:00:00,
2013-03-11 05:04:00,40.3,33.3,30.27,ESE,104,0.0,0.0,76,0.00,,,0.00,VWS V13.01,2013-03-11 09:04:00,
2013-03-11 05:09:00,40.3,33.3,30.27,ESE,104,0.0,0.0,76,0.00,,,0.00,VWS V13.01,2013-03-11 09:09:00,
2013-03-11 05:14:00,40.3,33.3,30.27,ESE,104,0.0,0.0,76,0.00,,,0.00,VWS V13.01,2013-03-11 09:14:00,
2013-03-11 05:19:00,40.3,33.3,30.27,ESE,104,0.0,0.0,76,0.00,,,0.00,VWS V13.01,2013-03-11 09:19:00,
2013-03-11 05:24:00,40.5,33.5,30.27,ESE,104,0.0,0.0,76,0.00,,,0.00,VWS V13.01,2013-03-11 09:24:00,
2013-03-11 05:29:00,40.5,33.5,30.27,ESE,104,0.0,0.0,76,0.00,,,0.00,VWS V13.01,2013-03-11 09:29:00,
2013-03-11 05:30:00,38.6,36.2,30.25,North,-999,0.0,0.0,91,0.00,,,-99.99,WeatherLink 5.9.3,2013-03-11 09:30:00,
2013-03-11 05:34:00,40.5,33.5,30.27,ESE,104,0.0,0.0,76,0.00,,,0.00,VWS V13.01,2013-03-11 09:34:00,
2013-03-11 05:39:00,40.5,33.5,30.27,ESE,104,0.0,0.0,76,0.00,,,0.00,VWS V13.01,2013-03-11 09:39:00,
2013-03-11 05:44:00,40.5,33.5,30.27,ESE,104,0.0,0.0,76,0.00,,,0.00,VWS V13.01,2013-03-11 09:44:00,
2013-03-11 05:49:00,40.5,33.5,30.27,ESE,104,0.0,0.0,76,0.00,,,0.00,VWS V13.01,2013-03-11 09:49:00,
2013-03-11 05:54:00,40.5,33.8,30.27,ESE,104,0.0,0.0,77,0.00,,,0.00,VWS V13.01,2013-03-11 09:54:00,
2013-03-11 05:59:00,40.5,33.8,30.27,ESE,104,0.0,0.0,77,0.00,,,0.00,VWS V13.01,2013-03-11 09:59:00,
2013-03-11 06:00:00,38.7,36.6,30.25,North,-999,0.0,0.0,92,0.00,,,-99.99,WeatherLink 5.9.3,2013-03-11 10:00:00,
2013-03-11 06:04:00,40.5,33.8,30.27,ESE,104,0.0,0.0,77,0.00,,,0.00,VWS V13.01,2013-03-11 10:04:00,
2013-03-11 06:09:00,40.6,34.3,30.27,ESE,104,0.0,0.0,78,0.00,,,0.00,VWS V13.01,2013-03-11 10:09:00,
2013-03-11 06:14:00,40.6,34.3,30.27,ESE,104,0.0,0.0,78,0.00,,,0.00,VWS V13.01,2013-03-11 10:14:00,
2013-03-11 06:19:00,40.6,34.3,30.27,ESE,104,0.0,0.0,78,0.00,,,0.00,VWS V13.01,2013-03-11 10:19:00,
2013-03-11 06:24:00,40.6,34.3,30.27,ESE,104,0.0,0.0,78,0.00,,,0.00,VWS V13.01,2013-03-11 10:24:00,
2013-03-11 06:29:00,40.6,34.3,30.27,ESE,104,0.0,0.0,78,0.00,,,0.00,VWS V13.01,2013-03-11 10:29:00,
2013-03-11 06:30:00,39.0,36.9,30.24,West,270,0.0,1.0,92,0.00,,,-99.99,WeatherLink 5.9.3,2013-03-11 10:30:00,
2013-03-11 06:34:00,40.6,34.3,30.27,ESE,104,0.0,0.0,78,0.00,,,0.00,VWS V13.01,2013-03-11 10:34:00,
2013-03-11 06:39:00,40.6,34.3,30.27,ESE,104,0.0,0.0,78,0.00,,,0.00,VWS V13.01,2013-03-11 10:39:00,
2013-03-11 06:44:00,40.8,34.5,30.27,ESE,104,0.0,0.0,78,0.00,,,0.00,VWS V13.01,2013-03-11 10:44:00,
2013-03-11 06:49:00,40.8,34.8,30.27,ESE,104,0.0,0.0,79,0.00,,,0.00,VWS V13.01,2013-03-11 10:49:00,
2013-03-11 06:54:00,41.0,35.0,30.27,ESE,104,0.0,0.0,79,0.00,,,0.00,VWS V13.01,2013-03-11 10:54:00,
2013-03-11 06:59:00,41.0,35.3,30.27,ESE,104,0.0,0.0,80,0.00,,,0.00,VWS V13.01,2013-03-11 10:59:00,
2013-03-11 07:00:00,39.1,37.2,30.24,West,270,0.0,1.0,93,0.00,,,-99.99,WeatherLink 5.9.3,2013-03-11 11:00:00,
2013-03-11 07:04:00,41.0,35.3,30.27,ESE,104,0.0,0.0,80,0.00,,,0.00,VWS V13.01,2013-03-11 11:04:00,
2013-03-11 07:09:00,41.0,35.3,30.27,ESE,104,0.0,0.0,80,0.00,,,0.00,VWS V13.01,2013-03-11 11:09:00,
2013-03-11 07:14:00,41.0,35.3,30.27,ESE,104,0.0,0.0,80,0.00,,,0.00,VWS V13.01,2013-03-11 11:14:00,
2013-03-11 07:19:00,41.2,35.8,30.27,ESE,104,0.0,0.0,81,0.00,,,0.00,VWS V13.01,2013-03-11 11:19:00,
2013-03-11 07:24:00,41.2,35.8,30.27,ESE,104,0.0,0.0,81,0.00,,,0.00,VWS V13.01,2013-03-11 11:24:00,
2013-03-11 07:29:00,41.2,35.8,30.27,ESE,104,0.0,0.0,81,0.00,,,0.00,VWS V13.01,2013-03-11 11:29:00,
2013-03-11 07:30:00,39.5,37.6,30.24,North,-999,0.0,0.0,93,0.00,,,-99.99,WeatherLink 5.9.3,2013-03-11 11:30:00,
2013-03-11 07:34:00,41.4,36.0,30.24,ESE,104,0.0,0.0,81,0.00,,,0.00,VWS V13.01,2013-03-11 11:34:00,
2013-03-11 07:39:00,41.4,36.3,30.24,ESE,104,0.0,0.0,82,0.00,,,0.00,VWS V13.01,2013-03-11 11:39:00,
2013-03-11 07:44:00,41.5,36.5,30.24,ESE,104,0.0,0.0,82,0.00,,,0.00,VWS V13.01,2013-03-11 11:44:00,
2013-03-11 07:49:00,41.5,36.5,30.24,ESE,104,0.0,0.0,82,0.00,,,0.00,VWS V13.01,2013-03-11 11:49:00,
2013-03-11 07:54:00,41.7,36.3,30.24,ESE,104,0.0,0.0,81,0.00,,,0.00,VWS V13.01,2013-03-11 11:54:00,
2013-03-11 07:59:00,41.7,36.3,30.24,ESE,104,0.0,0.0,81,0.00,,,0.00,VWS V13.01,2013-03-11 11:59:00,
2013-03-11 08:00:00,39.9,38.0,30.24,West,270,0.0,1.0,93,0.00,,,-99.99,WeatherLink 5.9.3,2013-03-11 12:00:00,
2013-03-11 08:04:00,41.9,36.5,30.24,ESE,104,0.0,0.0,81,0.00,,,0.00,VWS V13.01,2013-03-11 12:04:00,
2013-03-11 08:09:00,42.1,36.7,30.24,ESE,104,0.0,0.0,81,0.00,,,0.00,VWS V13.01,2013-03-11 12:09:00,
2013-03-11 08:14:00,42.1,36.4,30.24,ESE,104,0.0,0.0,80,0.00,,,0.00,VWS V13.01,2013-03-11 12:14:00,
2013-03-11 08:19:00,42.3,36.2,30.27,ESE,104,0.0,0.0,79,0.00,,,0.00,VWS V13.01,2013-03-11 12:19:00,
2013-03-11 08:24:00,42.4,36.4,30.27,ESE,104,0.0,0.0,79,0.00,,,0.00,VWS V13.01,2013-03-11 12:24:00,
2013-03-11 08:29:00,42.4,36.4,30.27,ESE,104,0.0,0.0,79,0.00,,,0.00,VWS V13.01,2013-03-11 12:29:00,
2013-03-11 08:30:00,40.6,38.5,30.24,West,270,0.0,1.0,92,0.00,,,-99.99,WeatherLink 5.9.3,2013-03-11 12:30:00,
2013-03-11 08:34:00,42.6,36.2,30.27,ESE,104,0.0,3.1,78,0.00,,,0.00,VWS V13.01,2013-03-11 12:34:00,
2013-03-11 08:39:00,42.6,36.2,30.27,ESE,104,0.0,3.1,78,0.00,,,0.00,VWS V13.01,2013-03-11 12:39:00,
2013-03-11 08:44:00,42.8,36.4,30.27,ESE,104,0.0,0.0,78,0.00,,,0.00,VWS V13.01,2013-03-11 12:44:00,
2013-03-11 08:49:00,42.8,36.1,30.27,ESE,104,0.0,0.0,77,0.00,,,0.00,VWS V13.01,2013-03-11 12:49:00,
2013-03-11 08:54:00,43.0,36.6,30.27,ESE,104,0.0,0.0,78,0.00,,,0.00,VWS V13.01,2013-03-11 12:54:00,
2013-03-11 08:59:00,43.2,36.5,30.27,ESE,104,0.0,0.0,77,0.00,,,0.00,VWS V13.01,2013-03-11 12:59:00,
2013-03-11 09:00:00,41.3,39.2,30.25,ESE,112,0.0,2.0,92,0.00,,,-99.99,WeatherLink 5.9.3,2013-03-11 13:00:00,
2013-03-11 09:04:00,43.3,36.6,30.27,ESE,104,0.0,0.0,77,0.00,,,0.00,VWS V13.01,2013-03-11 13:04:00,
2013-03-11 09:09:00,43.5,36.8,30.27,ESE,104,0.0,0.0,77,0.00,,,0.00,VWS V13.01,2013-03-11 13:09:00,
2013-03-11 09:14:00,43.7,36.6,30.27,ESE,104,2.2,2.2,76,0.00,,,0.00,VWS V13.01,2013-03-11 13:14:00,
2013-03-11 09:19:00,43.9,36.5,30.27,ESE,104,0.0,2.7,75,0.00,,,0.00,VWS V13.01,2013-03-11 13:19:00,
2013-03-11 09:24:00,44.1,36.7,30.27,East,79,0.0,2.7,75,0.00,,,0.00,VWS V13.01,2013-03-11 13:24:00,
2013-03-11 09:29:00,44.1,36.7,30.27,East,79,0.0,3.1,75,0.00,,,0.00,VWS V13.01,2013-03-11 13:29:00,
2013-03-11 09:30:00,42.2,39.5,30.26,South,180,0.0,2.0,90,0.00,,,-99.99,WeatherLink 5.9.3,2013-03-11 13:30:00,
2013-03-11 09:34:00,44.1,36.3,30.27,ESE,110,0.0,3.6,74,0.00,,,0.00,VWS V13.01,2013-03-11 13:34:00,
2013-03-11 09:39:00,44.1,36.3,30.27,ESE,109,0.0,2.7,74,0.00,,,0.00,VWS V13.01,2013-03-11 13:39:00,
2013-03-11 09:44:00,44.2,36.8,30.27,ESE,109,0.0,0.0,75,0.00,,,0.00,VWS V13.01,2013-03-11 13:44:00,
2013-03-11 09:49:00,44.2,36.8,30.27,ESE,110,0.0,2.2,75,0.00,,,0.00,VWS V13.01,2013-03-11 13:49:00,
2013-03-11 09:54:00,44.4,36.7,30.27,ESE,110,0.0,0.0,74,0.00,,,0.00,VWS V13.01,2013-03-11 13:54:00,
2013-03-11 09:59:00,44.6,36.8,30.27,ESE,110,0.0,2.2,74,0.00,,,0.00,VWS V13.01,2013-03-11 13:59:00,
2013-03-11 10:00:00,42.8,40.1,30.25,ESE,112,0.0,2.0,90,0.00,,,-99.99,WeatherLink 5.9.3,2013-03-11 14:00:00,
2013-03-11 10:04:00,45.0,37.2,30.27,ESE,110,0.0,0.0,74,0.00,,,0.00,VWS V13.01,2013-03-11 14:04:00,
2013-03-11 10:09:00,45.1,37.4,30.27,ESE,110,0.0,0.0,74,0.00,,,0.00,VWS V13.01,2013-03-11 14:09:00,
2013-03-11 10:14:00,45.3,37.2,30.27,SW,221,0.0,3.6,73,0.00,,,0.00,VWS V13.01,2013-03-11 14:14:00,
2013-03-11 10:19:00,45.7,37.5,30.27,SW,221,0.0,0.0,73,0.00,,,0.00,VWS V13.01,2013-03-11 14:19:00,
2013-03-11 10:24:00,46.2,38.1,30.27,East,79,0.0,2.2,73,0.00,,,0.00,VWS V13.01,2013-03-11 14:24:00,
2013-03-11 10:29:00,46.6,37.7,30.27,East,79,2.7,2.7,71,0.00,,,0.00,VWS V13.01,2013-03-11 14:29:00,
2013-03-11 10:30:00,43.8,40.2,30.25,ESE,112,0.0,3.0,87,0.00,,,-99.99,WeatherLink 5.9.3,2013-03-11 14:30:00,
2013-03-11 10:34:00,47.1,37.8,30.27,East,79,0.0,3.1,70,0.00,,,0.00,VWS V13.01,2013-03-11 14:34:00,
2013-03-11 10:39:00,47.3,36.5,30.27,ENE,78,0.0,2.7,66,0.00,,,0.00,VWS V13.01,2013-03-11 14:39:00,
2013-03-11 10:44:00,47.5,35.5,30.27,East,83,0.0,3.6,63,0.00,,,0.00,VWS V13.01,2013-03-11 14:44:00,
2013-03-11 10:49:00,47.3,35.0,30.27,East,83,0.0,3.1,62,0.00,,,0.00,VWS V13.01,2013-03-11 14:49:00,
2013-03-11 10:54:00,47.3,35.8,30.27,SE,131,2.7,2.7,64,0.00,,,0.00,VWS V13.01,2013-03-11 14:54:00,
2013-03-11 10:59:00,47.5,35.5,30.27,East,100,0.0,2.2,63,0.00,,,0.00,VWS V13.01,2013-03-11 14:59:00,
2013-03-11 11:00:00,45.4,41.2,30.24,SE,135,0.0,3.0,85,0.00,,,-99.99,WeatherLink 5.9.3,2013-03-11 15:00:00,
2013-03-11 11:04:00,47.5,35.5,30.27,East,87,0.0,3.1,63,0.00,,,0.00,VWS V13.01,2013-03-11 15:04:00,
2013-03-11 11:09:00,47.5,35.1,30.27,SE,140,0.0,3.1,62,0.00,,,0.00,VWS V13.01,2013-03-11 15:09:00,
2013-03-11 11:14:00,47.5,35.1,30.27,ESE,113,0.0,3.1,62,0.00,,,0.00,VWS V13.01,2013-03-11 15:14:00,
2013-03-11 11:19:00,47.7,35.7,30.24,ENE,68,0.0,2.7,63,0.00,,,0.00,VWS V13.01,2013-03-11 15:19:00,
2013-03-11 11:24:00,47.7,35.3,30.24,ENE,68,0.0,0.0,62,0.00,,,0.00,VWS V13.01,2013-03-11 15:24:00,
2013-03-11 11:29:00,47.8,35.5,30.24,ENE,69,0.0,2.7,62,0.00,,,0.00,VWS V13.01,2013-03-11 15:29:00,
2013-03-11 11:30:00,45.7,41.1,30.22,SE,135,0.0,3.0,84,0.00,,,-99.99,WeatherLink 5.9.3,2013-03-11 15:30:00,
2013-03-11 11:34:00,48.2,34.6,30.24,ENE,69,2.2,2.7,59,0.00,,,0.00,VWS V13.01,2013-03-11 15:34:00,
2013-03-11 11:39:00,48.6,34.9,30.24,ENE,70,2.2,3.6,59,0.00,,,0.00,VWS V13.01,2013-03-11 15:39:00,
2013-03-11 11:44:00,48.9,34.4,30.24,East,99,0.0,3.1,57,0.00,,,0.00,VWS V13.01,2013-03-11 15:44:00,
2013-03-11 11:49:00,49.3,34.3,30.24,East,83,0.0,2.7,56,0.00,,,0.00,VWS V13.01,2013-03-11 15:49:00,
2013-03-11 11:54:00,49.3,34.3,30.24,SE,129,0.0,3.6,56,0.00,,,0.00,VWS V13.01,2013-03-11 15:54:00,
2013-03-11 11:59:00,49.6,33.7,30.24,SE,138,0.0,3.6,54,0.00,,,0.00,VWS V13.01,2013-03-11 15:59:00,
2013-03-11 12:00:00,47.1,41.2,30.23,ESE,112,0.0,3.0,80,0.00,,,-99.99,WeatherLink 5.9.3,2013-03-11 16:00:00,
2013-03-11 12:04:00,50.0,33.6,30.24,South,172,0.0,4.0,53,0.00,,,0.00,VWS V13.01,2013-03-11 16:04:00,
2013-03-11 12:09:00,50.2,33.7,30.24,South,175,0.0,3.1,53,0.00,,,0.00,VWS V13.01,2013-03-11 16:09:00,
2013-03-11 12:14:00,50.4,33.9,30.24,SW,219,4.0,4.0,53,0.00,,,0.00,VWS V13.01,2013-03-11 16:14:00,
2013-03-11 12:19:00,50.9,34.4,30.24,NE,40,3.1,3.6,53,0.00,,,0.00,VWS V13.01,2013-03-11 16:19:00,
2013-03-11 12:24:00,51.4,33.9,30.24,ENE,75,0.0,3.6,51,0.00,,,0.00,VWS V13.01,2013-03-11 16:24:00,
2013-03-11 12:29:00,51.4,32.9,30.24,SW,216,2.2,5.4,49,0.00,,,0.00,VWS V13.01,2013-03-11 16:29:00,
2013-03-11 12:30:00,49.2,41.6,30.22,WSW,247,1.0,5.0,75,0.00,,,-99.99,WeatherLink 5.9.3,2013-03-11 16:30:00,
2013-03-11 12:34:00,51.6,32.6,30.24,SE,128,0.0,4.9,48,0.00,,,0.00,VWS V13.01,2013-03-11 16:34:00,
2013-03-11 12:39:00,51.8,33.3,30.24,SE,133,0.0,2.7,49,0.00,,,0.00,VWS V13.01,2013-03-11 16:39:00,
2013-03-11 12:44:00,52.5,34.4,30.24,ESE,110,0.0,3.6,50,0.00,,,0.00,VWS V13.01,2013-03-11 16:44:00,
2013-03-11 12:49:00,53.1,33.9,30.24,ENE,67,3.1,3.6,48,0.00,,,0.00,VWS V13.01,2013-03-11 16:49:00,
2013-03-11 12:54:00,53.2,33.0,30.24,ENE,70,0.0,3.1,46,0.00,,,0.00,VWS V13.01,2013-03-11 16:54:00,
2013-03-11 12:59:00,53.1,31.7,30.24,ESE,122,2.7,3.6,44,0.00,,,0.00,VWS V13.01,2013-03-11 16:59:00,
2013-03-11 13:00:00,51.3,41.8,30.20,ESE,112,1.0,4.0,70,0.00,,,-99.99,WeatherLink 5.9.3,2013-03-11 17:00:00,
2013-03-11 13:04:00,53.4,32.6,30.22,SW,221,0.0,2.7,45,0.00,,,0.00,VWS V13.01,2013-03-11 17:04:00,
2013-03-11 13:09:00,54.1,33.8,30.22,ENE,64,3.1,4.0,46,0.00,,,0.00,VWS V13.01,2013-03-11 17:09:00,
2013-03-11 13:14:00,54.3,32.9,30.22,ESE,102,2.2,3.1,44,0.00,,,0.00,VWS V13.01,2013-03-11 17:14:00,
2013-03-11 13:19:00,54.5,32.5,30.22,ESE,105,2.7,3.1,43,0.00,,,0.00,VWS V13.01,2013-03-11 17:19:00,
2013-03-11 13:24:00,54.9,33.4,30.22,East,95,2.7,3.1,44,0.00,,,0.00,VWS V13.01,2013-03-11 17:24:00,
2013-03-11 13:29:00,54.7,32.1,30.22,NE,41,3.1,3.6,42,0.00,,,0.00,VWS V13.01,2013-03-11 17:29:00,
2013-03-11 13:30:00,52.9,42.6,30.18,ESE,112,1.0,4.0,68,0.00,,,-99.99,WeatherLink 5.9.3,2013-03-11 17:30:00,
2013-03-11 13:34:00,54.3,32.3,30.19,ESE,112,0.0,3.1,43,0.00,,,0.00,VWS V13.01,2013-03-11 17:34:00,
2013-03-11 13:39:00,54.1,31.6,30.19,ESE,119,2.2,3.1,42,0.00,,,0.00,VWS V13.01,2013-03-11 17:39:00,
2013-03-11 13:44:00,54.5,33.6,30.19,East,83,0.0,3.1,45,0.00,,,0.00,VWS V13.01,2013-03-11 17:44:00,
2013-03-11 13:49:00,54.7,31.5,30.22,East,83,0.0,2.7,41,0.00,,,0.00,VWS V13.01,2013-03-11 17:49:00,
2013-03-11 13:54:00,55.0,33.5,30.22,East,83,0.0,2.7,44,0.00,,,0.00,VWS V13.01,2013-03-11 17:54:00,
2013-03-11 13:59:00,55.2,33.7,30.22,ENE,58,0.0,3.1,44,0.00,,,0.00,VWS V13.01,2013-03-11 17:59:00,
2013-03-11 14:00:00,52.8,42.5,30.18,ESE,112,1.0,3.0,68,0.00,,,-99.99,WeatherLink 5.9.3,2013-03-11 18:00:00,
2013-03-11 14:03:00,55.2,32.5,30.22,ENE,69,0.0,2.2,42,0.00,,,0.00,VWS V13.01,2013-03-11 18:03:00,
2013-03-11 14:08:00,55.6,35.2,30.22,ENE,70,0.0,3.1,46,0.00,,,0.00,VWS V13.01,2013-03-11 18:08:00,
2013-03-11 14:13:00,55.8,34.2,30.22,ENE,70,0.0,2.7,44,0.00,,,0.00,VWS V13.01,2013-03-11 18:13:00,
2013-03-11 14:18:00,55.8,34.2,30.19,North,9,0.0,3.1,44,0.00,,,0.00,VWS V13.01,2013-03-11 18:18:00,
2013-03-11 14:23:00,55.6,35.2,30.19,NE,47,4.0,4.0,46,0.00,,,0.00,VWS V13.01,2013-03-11 18:23:00,
2013-03-11 14:28:00,55.9,36.0,30.19,NE,51,0.0,2.2,47,0.00,,,0.00,VWS V13.01,2013-03-11 18:28:00,
2013-03-11 14:30:00,53.4,44.2,30.17,ESE,112,1.0,4.0,71,0.00,,,-99.99,WeatherLink 5.9.3,2013-03-11 18:30:00,
2013-03-11 14:33:00,56.1,35.6,30.19,NE,51,2.2,2.7,46,0.00,,,0.00,VWS V13.01,2013-03-11 18:33:00,
2013-03-11 14:38:00,56.3,35.2,30.19,ENE,76,0.0,3.1,45,0.00,,,0.00,VWS V13.01,2013-03-11 18:38:00,
2013-03-11 14:43:00,55.9,35.5,30.19,NNE,21,2.2,4.0,46,0.00,,,0.00,VWS V13.01,2013-03-11 18:43:00,
2013-03-11 14:48:00,55.9,35.5,30.19,North,11,2.7,4.0,46,0.00,,,0.00,VWS V13.01,2013-03-11 18:48:00,
2013-03-11 14:53:00,55.8,34.8,30.19,East,101,3.1,3.6,45,0.00,,,0.00,VWS V13.01,2013-03-11 18:53:00,
2013-03-11 14:58:00,55.9,35.5,30.19,NNW,344,0.0,3.1,46,0.00,,,0.00,VWS V13.01,2013-03-11 18:58:00,
2013-03-11 15:00:00,53.4,44.2,30.15,ESE,112,1.0,4.0,71,0.00,,,-99.99,WeatherLink 5.9.3,2013-03-11 19:00:00,
2013-03-11 15:03:00,55.9,34.9,30.16,NNE,13,2.2,5.8,45,0.00,,,0.00,VWS V13.01,2013-03-11 19:03:00,
2013-03-11 15:09:00,55.9,35.5,30.16,NE,40,2.2,3.6,46,0.00,,,0.00,VWS V13.01,2013-03-11 19:09:00,
2013-03-11 15:13:00,55.8,35.3,30.16,NE,52,0.0,4.0,46,0.00,,,0.00,VWS V13.01,2013-03-11 19:13:00,
2013-03-11 15:18:00,55.4,35.0,30.16,NNE,31,0.0,3.1,46,0.00,,,0.00,VWS V13.01,2013-03-11 19:18:00,
2013-03-11 15:23:00,55.2,34.8,30.16,NE,56,2.2,4.0,46,0.00,,,0.00,VWS V13.01,2013-03-11 19:23:00,
2013-03-11 15:28:00,55.4,35.0,30.16,East,93,0.0,2.7,46,0.00,,,0.00,VWS V13.01,2013-03-11 19:28:00,
2013-03-11 15:30:00,52.9,44.1,30.15,East,90,1.0,6.0,72,0.00,,,-99.99,WeatherLink 5.9.3,2013-03-11 19:30:00,
2013-03-11 15:33:00,55.2,35.4,30.16,NNE,20,2.7,2.7,47,0.00,,,0.00,VWS V13.01,2013-03-11 19:33:00,
2013-03-11 15:38:00,55.2,35.4,30.16,NNE,19,0.0,3.6,47,0.00,,,0.00,VWS V13.01,2013-03-11 19:38:00,
2013-03-11 15:43:00,55.0,35.2,30.16,East,83,2.2,3.6,47,0.00,,,0.00,VWS V13.01,2013-03-11 19:43:00,
2013-03-11 15:48:00,55.0,35.7,30.16,East,83,0.0,2.7,48,0.00,,,0.00,VWS V13.01,2013-03-11 19:48:00,
2013-03-11 15:53:00,55.0,35.7,30.16,NNE,16,0.0,0.0,48,0.00,,,0.00,VWS V13.01,2013-03-11 19:53:00,
2013-03-11 15:58:00,55.0,35.2,30.16,SE,126,2.7,3.1,47,0.00,,,0.00,VWS V13.01,2013-03-11 19:58:00,
2013-03-11 16:00:00,52.5,44.4,30.14,East,90,1.0,4.0,74,0.00,,,-99.99,WeatherLink 5.9.3,2013-03-11 20:00:00,
2013-03-11 16:03:00,54.9,35.6,30.16,NNE,20,0.0,2.7,48,0.00,,,0.00,VWS V13.01,2013-03-11 20:03:00,
2013-03-11 16:08:00,54.5,36.3,30.16,NNE,20,3.1,3.1,50,0.00,,,0.00,VWS V13.01,2013-03-11 20:08:00,
2013-03-11 16:14:00,54.1,36.4,30.16,ENE,75,0.0,4.0,51,0.00,,,0.00,VWS V13.01,2013-03-11 20:14:00,
2013-03-11 16:18:00,53.8,36.6,30.16,NNE,19,0.0,3.6,52,0.00,,,0.00,VWS V13.01,2013-03-11 20:18:00,
2013-03-11 16:24:00,53.4,36.7,30.16,NNE,19,0.0,0.0,53,0.00,,,0.00,VWS V13.01,2013-03-11 20:24:00,
2013-03-11 16:28:00,53.1,36.9,30.16,East,87,0.0,3.1,54,0.00,,,0.00,VWS V13.01,2013-03-11 20:28:00,
2013-03-11 16:30:00,51.6,45.3,30.14,East,90,1.0,5.0,79,0.00,,,-99.99,WeatherLink 5.9.3,2013-03-11 20:30:00,
2013-03-11 16:33:00,52.7,37.0,30.16,SE,139,0.0,4.5,55,0.00,,,0.00,VWS V13.01,2013-03-11 20:33:00,
2013-03-11 16:38:00,52.5,37.3,30.16,NE,56,2.7,3.1,56,0.00,,,0.00,VWS V13.01,2013-03-11 20:38:00,
2013-03-11 16:44:00,52.2,37.4,30.16,NE,40,0.0,2.7,57,0.00,,,0.00,VWS V13.01,2013-03-11 20:44:00,
2013-03-11 16:49:00,52.0,37.7,30.13,East,83,0.0,3.6,58,0.00,,,0.00,VWS V13.01,2013-03-11 20:49:00,
2013-03-11 16:54:00,51.8,37.5,30.13,NE,41,0.0,5.8,58,0.00,,,0.00,VWS V13.01,2013-03-11 20:54:00,
2013-03-11 16:59:00,51.6,38.2,30.13,SE,128,0.0,2.7,60,0.00,,,0.00,VWS V13.01,2013-03-11 20:59:00,
2013-03-11 17:00:00,49.7,44.7,30.13,ESE,112,1.0,6.0,83,0.00,,,-99.99,WeatherLink 5.9.3,2013-03-11 21:00:00,
2013-03-11 17:04:00,51.4,38.5,30.16,SE,142,3.6,3.6,61,0.00,,,0.00,VWS V13.01,2013-03-11 21:04:00,
2013-03-11 17:09:00,51.3,38.3,30.16,East,100,0.0,3.1,61,0.00,,,0.00,VWS V13.01,2013-03-11 21:09:00,
2013-03-11 17:14:00,51.3,38.7,30.16,NNE,21,0.0,2.7,62,0.00,,,0.00,VWS V13.01,2013-03-11 21:14:00,
2013-03-11 17:19:00,51.1,38.5,30.13,SW,234,2.7,2.7,62,0.00,,,0.00,VWS V13.01,2013-03-11 21:19:00,
2013-03-11 17:24:00,51.1,38.5,30.13,SW,234,0.0,0.0,62,0.00,,,0.00,VWS V13.01,2013-03-11 21:24:00,
2013-03-11 17:29:00,50.9,38.4,30.13,NNW,331,2.2,3.1,62,0.00,,,0.00,VWS V13.01,2013-03-11 21:29:00,
2013-03-11 17:30:00,48.9,44.3,30.13,ESE,112,0.0,3.0,84,0.00,,,-99.99,WeatherLink 5.9.3,2013-03-11 21:30:00,
2013-03-11 17:34:00,50.9,39.2,30.13,NNW,332,0.0,0.0,64,0.00,,,0.00,VWS V13.01,2013-03-11 21:34:00,
2013-03-11 17:39:00,50.9,39.2,30.13,SSW,205,0.0,3.1,64,0.00,,,0.00,VWS V13.01,2013-03-11 21:39:00,
2013-03-11 17:44:00,50.9,39.6,30.13,SSW,199,0.0,0.0,65,0.00,,,0.00,VWS V13.01,2013-03-11 21:44:00,
2013-03-11 17:49:00,50.9,39.2,30.13,ENE,72,0.0,3.1,64,0.00,,,0.00,VWS V13.01,2013-03-11 21:49:00,
2013-03-11 17:54:00,50.7,39.0,30.13,ENE,72,0.0,2.2,64,0.00,,,0.00,VWS V13.01,2013-03-11 21:54:00,
2013-03-11 17:59:00,50.5,39.2,30.13,NNE,18,0.0,4.0,65,0.00,,,0.00,VWS V13.01,2013-03-11 21:59:00,
2013-03-11 18:00:00,48.8,44.5,30.12,East,90,0.0,3.0,85,0.00,,,-99.99,WeatherLink 5.9.3,2013-03-11 22:00:00,
2013-03-11 18:04:00,50.4,39.5,30.13,SSW,193,2.2,3.6,66,0.00,,,0.00,VWS V13.01,2013-03-11 22:04:00,
2013-03-11 18:09:00,50.2,39.7,30.13,SSW,210,2.7,2.7,67,0.00,,,0.00,VWS V13.01,2013-03-11 22:09:00,
2013-03-11 18:14:00,50.2,39.7,30.13,SSW,196,0.0,3.6,67,0.00,,,0.00,VWS V13.01,2013-03-11 22:14:00,
2013-03-11 18:19:00,50.0,39.9,30.13,ESE,123,2.7,2.7,68,0.00,,,0.00,VWS V13.01,2013-03-11 22:19:00,
2013-03-11 18:24:00,49.8,40.1,30.13,NE,38,0.0,0.0,69,0.00,,,0.00,VWS V13.01,2013-03-11 22:24:00,
2013-03-11 18:29:00,49.6,39.9,30.13,NE,38,0.0,0.0,69,0.00,,,0.00,VWS V13.01,2013-03-11 22:29:00,
2013-03-11 18:30:00,48.1,44.4,30.11,ESE,112,0.0,2.0,87,0.00,,,-99.99,WeatherLink 5.9.3,2013-03-11 22:30:00,
2013-03-11 18:34:00,49.6,39.9,30.13,NE,47,0.0,2.7,69,0.00,,,0.00,VWS V13.01,2013-03-11 22:34:00,
2013-03-11 18:39:00,49.5,40.1,30.13,NE,35,0.0,0.0,70,0.00,,,0.00,VWS V13.01,2013-03-11 22:39:00,
2013-03-11 18:44:00,49.1,39.8,30.13,NE,35,0.0,0.0,70,0.00,,,0.00,VWS V13.01,2013-03-11 22:44:00,
2013-03-11 18:49:00,49.1,40.1,30.13,East,98,0.0,2.7,71,0.00,,,0.00,VWS V13.01,2013-03-11 22:49:00,
2013-03-11 18:54:00,48.9,39.9,30.13,East,98,0.0,0.0,71,0.00,,,0.00,VWS V13.01,2013-03-11 22:54:00,
2013-03-11 18:59:00,48.7,40.1,30.13,East,98,0.0,0.0,72,0.00,,,0.00,VWS V13.01,2013-03-11 22:59:00,
2013-03-11 19:00:00,47.2,44.1,30.11,ESE,112,0.0,3.0,89,0.00,,,-99.99,WeatherLink 5.9.3,2013-03-11 23:00:00,
2013-03-11 19:04:00,48.7,40.1,30.13,ENE,57,0.0,2.7,72,0.00,,,0.00,VWS V13.01,2013-03-11 23:04:00,
2013-03-11 19:09:00,48.7,40.1,30.13,ENE,57,0.0,0.0,72,0.00,,,0.00,VWS V13.01,2013-03-11 23:09:00,
2013-03-11 19:14:00,48.6,40.3,30.13,ENE,57,0.0,2.7,73,0.00,,,0.00,VWS V13.01,2013-03-11 23:14:00,
2013-03-11 19:19:00,48.6,40.3,30.13,ENE,57,0.0,0.0,73,0.00,,,0.00,VWS V13.01,2013-03-11 23:19:00,
2013-03-11 19:24:00,48.6,40.3,30.13,ENE,57,0.0,0.0,73,0.00,,,0.00,VWS V13.01,2013-03-11 23:24:00,
2013-03-11 19:29:00,48.6,40.3,30.13,ENE,57,0.0,0.0,73,0.00,,,0.00,VWS V13.01,2013-03-11 23:29:00,
2013-03-11 19:30:00,46.4,43.9,30.11,NE,45,0.0,1.0,91,0.00,,,-99.99,WeatherLink 5.9.3,2013-03-11 23:30:00,
2013-03-11 19:34:00,48.4,40.1,30.13,ENE,57,0.0,0.0,73,0.00,,,0.00,VWS V13.01,2013-03-11 23:34:00,
2013-03-11 19:39:00,48.4,40.5,30.13,ENE,57,0.0,0.0,74,0.00,,,0.00,VWS V13.01,2013-03-11 23:39:00,
2013-03-11 19:44:00,48.4,40.8,30.13,ENE,57,0.0,2.7,75,0.00,,,0.00,VWS V13.01,2013-03-11 23:44:00,
2013-03-11 19:49:00,48.4,40.8,30.13,ENE,57,0.0,0.0,75,0.00,,,0.00,VWS V13.01,2013-03-11 23:49:00,
2013-03-11 19:54:00,48.4,40.8,30.13,ENE,57,0.0,2.2,75,0.00,,,0.00,VWS V13.01,2013-03-11 23:54:00,
2013-03-11 19:59:00,48.4,41.2,30.13,ENE,57,0.0,3.1,76,0.00,,,0.00,VWS V13.01,2013-03-11 23:59:00,
2013-03-11 20:00:00,46.3,44.1,30.12,ESE,112,0.0,4.0,92,0.00,,,-99.99,WeatherLink 5.9.3,2013-03-12 00:00:00,
2013-03-11 20:04:00,48.4,41.5,30.13,SSW,209,0.0,2.2,77,0.00,,,0.00,VWS V13.01,2013-03-12 00:04:00,
2013-03-11 20:09:00,48.4,41.5,30.13,SSW,209,0.0,0.0,77,0.00,,,0.00,VWS V13.01,2013-03-12 00:09:00,
2013-03-11 20:14:00,48.4,41.5,30.13,SSW,209,0.0,2.2,77,0.00,,,0.00,VWS V13.01,2013-03-12 00:14:00,
2013-03-11 20:19:00,48.4,41.5,30.13,SSW,209,0.0,0.0,77,0.00,,,0.00,VWS V13.01,2013-03-12 00:19:00,
2013-03-11 20:24:00,48.6,41.7,30.13,ESE,119,0.0,2.7,77,0.00,,,0.00,VWS V13.01,2013-03-12 00:24:00,
2013-03-11 20:29:00,48.6,42.0,30.13,ESE,119,0.0,0.0,78,0.00,,,0.00,VWS V13.01,2013-03-12 00:29:00,
2013-03-11 20:30:00,46.6,44.4,30.12,East,90,0.0,2.0,92,0.00,,,-99.99,WeatherLink 5.9.3,2013-03-12 00:30:00,
2013-03-11 20:34:00,48.7,42.9,30.13,ESE,119,0.0,2.7,80,0.00,,,0.00,VWS V13.01,2013-03-12 00:34:00,
2013-03-11 20:39:00,48.9,43.3,30.13,ENE,76,0.0,3.1,81,0.00,,,0.00,VWS V13.01,2013-03-12 00:39:00,
2013-03-11 20:44:00,48.9,43.3,30.13,ENE,76,0.0,2.2,81,0.00,,,0.00,VWS V13.01,2013-03-12 00:44:00,
2013-03-11 20:49:00,48.9,43.3,30.13,ENE,76,0.0,2.7,81,0.00,,,0.00,VWS V13.01,2013-03-12 00:49:00,
2013-03-11 20:54:00,49.1,43.5,30.13,ENE,76,0.0,2.7,81,0.00,,,0.00,VWS V13.01,2013-03-12 00:54:00,
2013-03-11 20:59:00,49.1,43.5,30.13,ESE,114,0.0,5.4,81,0.00,,,0.00,VWS V13.01,2013-03-12 00:59:00,
2013-03-11 21:00:00,47.4,45.2,30.10,ESE,112,0.0,3.0,92,0.00,,,-99.99,WeatherLink 5.9.3,2013-03-12 01:00:00,
2013-03-11 21:04:00,49.1,43.5,30.10,ESE,114,0.0,2.2,81,0.00,,,0.00,VWS V13.01,2013-03-12 01:04:00,
2013-03-11 21:09:00,49.1,43.5,30.10,ESE,109,3.1,3.1,81,0.00,,,0.00,VWS V13.01,2013-03-12 01:09:00,
2013-03-11 21:14:00,49.3,44.0,30.10,ESE,106,0.0,2.7,82,0.00,,,0.00,VWS V13.01,2013-03-12 01:14:00,
2013-03-11 21:19:00,49.3,44.0,30.10,ESE,106,0.0,0.0,82,0.00,,,0.00,VWS V13.01,2013-03-12 01:19:00,
2013-03-11 21:24:00,49.3,44.0,30.10,ESE,107,0.0,2.2,82,0.00,,,0.00,VWS V13.01,2013-03-12 01:24:00,
2013-03-11 21:29:00,49.3,44.0,30.10,East,87,2.7,2.7,82,0.00,,,0.00,VWS V13.01,2013-03-12 01:29:00,
2013-03-11 21:30:00,47.8,45.6,30.10,ESE,112,0.0,3.0,92,0.00,,,-99.99,WeatherLink 5.9.3,2013-03-12 01:30:00,
2013-03-11 21:34:00,49.3,43.7,30.10,East,87,0.0,3.1,81,0.00,,,0.00,VWS V13.01,2013-03-12 01:34:00,
2013-03-11 21:39:00,49.3,43.7,30.10,East,87,0.0,0.0,81,0.00,,,0.00,VWS V13.01,2013-03-12 01:39:00,
2013-03-11 21:44:00,49.3,43.7,30.10,East,87,0.0,0.0,81,0.00,,,0.00,VWS V13.01,2013-03-12 01:44:00,
2013-03-11 21:49:00,49.5,43.9,30.10,East,87,0.0,0.0,81,0.00,,,0.00,VWS V13.01,2013-03-12 01:49:00,
2013-03-11 21:54:00,49.5,44.2,30.10,East,87,0.0,2.7,82,0.00,,,0.00,VWS V13.01,2013-03-12 01:54:00,
2013-03-11 21:59:00,49.5,44.2,30.10,East,87,0.0,0.0,82,0.00,,,0.00,VWS V13.01,2013-03-12 01:59:00,
2013-03-11 22:00:00,47.9,46.0,30.10,ESE,112,0.0,2.0,93,0.00,,,-99.99,WeatherLink 5.9.3,2013-03-12 02:00:00,
2013-03-11 22:04:00,49.6,44.4,30.10,East,87,0.0,2.7,82,0.00,,,0.00,VWS V13.01,2013-03-12 02:04:00,
2013-03-11 22:09:00,49.6,44.4,30.10,East,87,0.0,0.0,82,0.00,,,0.00,VWS V13.01,2013-03-12 02:09:00,
2013-03-11 22:14:00,49.6,44.4,30.10,East,87,0.0,0.0,82,0.00,,,0.00,VWS V13.01,2013-03-12 02:14:00,
2013-03-11 22:19:00,49.8,44.5,30.10,ENE,73,0.0,3.6,82,0.00,,,0.00,VWS V13.01,2013-03-12 02:19:00,
2013-03-11 22:24:00,49.8,44.9,30.10,ENE,73,0.0,0.0,83,0.00,,,0.00,VWS V13.01,2013-03-12 02:24:00,
2013-03-11 22:29:00,49.8,44.9,30.10,ENE,73,0.0,0.0,83,0.00,,,0.00,VWS V13.01,2013-03-12 02:29:00,
2013-03-11 22:30:00,48.3,46.4,30.09,ESE,112,0.0,2.0,93,0.00,,,-99.99,WeatherLink 5.9.3,2013-03-12 02:30:00,
2013-03-11 22:34:00,49.8,44.9,30.10,SE,129,0.0,0.0,83,0.00,,,0.00,VWS V13.01,2013-03-12 02:34:00,
2013-03-11 22:39:00,49.8,44.9,30.10,SE,129,0.0,0.0,83,0.00,,,0.00,VWS V13.01,2013-03-12 02:39:00,
2013-03-11 22:44:00,49.8,44.9,30.10,SE,129,0.0,2.7,83,0.00,,,0.00,VWS V13.01,2013-03-12 02:44:00,
2013-03-11 22:49:00,49.8,44.9,30.10,SE,129,0.0,0.0,83,0.00,,,0.00,VWS V13.01,2013-03-12 02:49:00,
2013-03-11 22:54:00,49.8,44.9,30.10,SE,129,0.0,0.0,83,0.00,,,0.00,VWS V13.01,2013-03-12 02:54:00,
2013-03-11 22:59:00,49.8,44.9,30.10,SE,129,0.0,0.0,83,0.00,,,0.00,VWS V13.01,2013-03-12 02:59:00,
2013-03-11 23:00:00,48.4,46.5,30.09,WSW,247,0.0,1.0,93,0.00,,,-99.99,WeatherLink 5.9.3,2013-03-12 03:00:00,
2013-03-11 23:04:00,49.8,44.9,30.10,SE,129,0.0,0.0,83,0.00,,,0.00,VWS V13.01,2013-03-12 03:04:00,
2013-03-11 23:09:00,49.8,44.9,30.10,SE,129,0.0,0.0,83,0.00,,,0.00,VWS V13.01,2013-03-12 03:09:00,
2013-03-11 23:14:00,49.8,44.9,30.10,SE,129,0.0,0.0,83,0.00,,,0.00,VWS V13.01,2013-03-12 03:14:00,
2013-03-11 23:19:00,49.8,44.9,30.10,SE,129,0.0,0.0,83,0.00,,,0.00,VWS V13.01,2013-03-12 03:19:00,
2013-03-11 23:24:00,50.0,45.0,30.10,SE,129,0.0,0.0,83,0.00,,,0.00,VWS V13.01,2013-03-12 03:24:00,
2013-03-11 23:29:00,50.0,45.0,30.10,SE,129,0.0,0.0,83,0.00,,,0.00,VWS V13.01,2013-03-12 03:29:00,
2013-03-11 23:30:00,48.4,46.5,30.09,East,90,0.0,1.0,93,0.00,,,-99.99,WeatherLink 5.9.3,2013-03-12 03:30:00,
2013-03-11 23:34:00,50.0,45.0,30.10,SE,129,0.0,0.0,83,0.00,,,0.00,VWS V13.01,2013-03-12 03:34:00,
2013-03-11 23:39:00,50.0,45.0,30.10,SE,129,0.0,0.0,83,0.00,,,0.00,VWS V13.01,2013-03-12 03:39:00,
2013-03-11 23:44:00,50.0,45.0,30.10,SE,129,0.0,2.7,83,0.00,,,0.00,VWS V13.01,2013-03-12 03:44:00,
2013-03-11 23:49:00,50.0,45.0,30.10,SE,129,0.0,0.0,83,0.00,,,0.00,VWS V13.01,2013-03-12 03:49:00,
2013-03-11 23:54:00,50.0,45.0,30.10,SE,129,0.0,0.0,83,0.00,,,0.00,VWS V13.01,2013-03-12 03:54:00,
2013-03-11 23:59:00,50.0,45.0,30.10,SE,129,0.0,0.0,83,0.00,,,0.00,VWS V13.01,2013-03-12 03:59:00,